Time,TemperatureF,DewpointF,PressureIn,WindDirection,WindDirectionDegrees,WindSpeedMPH,WindSpeedGustMPH,Humidity,HourlyPrecipIn,Conditions,Clouds,dailyrainin,SolarRadiationWatts/m^2,SoftwareType,DateUTC
2013-08-09 00:01:00,55.8,52.9,29.68,WSW,256,0.0,0.0,90,0.00,,,0.00,0,WeatherCatV1.02B3,2013-08-09 07:01:00,
2013-08-09 00:02:00,55.9,53.0,29.68,WSW,256,0.0,0.0,90,0.00,,,0.00,0,WeatherCatV1.02B3,2013-08-09 07:02:00,
2013-08-09 00:07:00,55.8,52.6,29.68,WSW,256,0.0,0.0,89,0.00,,,0.00,0,WeatherCatV1.02B3,2013-08-09 07:07:00,
2013-08-09 00:12:00,55.4,52.2,29.68,WSW,256,0.0,0.0,89,0.00,,,0.00,0,WeatherCatV1.02B3,2013-08-09 07:12:00,
2013-08-09 00:17:00,55.2,52.0,29.68,WSW,256,0.0,0.0,89,0.00,,,0.00,0,WeatherCatV1.02B3,2013-08-09 07:17:00,
2013-08-09 00:22:00,55.0,52.1,29.68,WSW,256,0.0,0.0,90,0.00,,,0.00,0,WeatherCatV1.02B3,2013-08-09 07:22:00,
2013-08-09 00:27:00,55.2,52.3,29.68,WSW,256,0.0,0.0,90,0.00,,,0.00,0,WeatherCatV1.02B3,2013-08-09 07:27:00,
2013-08-09 00:32:00,55.2,52.0,29.68,WSW,256,0.0,0.0,89,0.00,,,0.00,0,WeatherCatV1.02B3,2013-08-09 07:32:00,
2013-08-09 00:37:00,54.4,51.2,29.68,WSW,256,0.0,1.0,89,0.00,,,0.00,0,WeatherCatV1.02B3,2013-08-09 07:37:00,
2013-08-09 00:42:00,54.6,51.7,29.68,WSW,256,0.0,0.0,90,0.00,,,0.00,0,WeatherCatV1.02B3,2013-08-09 07:42:00,
2013-08-09 00:47:00,54.7,51.8,29.68,WSW,256,0.0,0.0,90,0.00,,,0.00,0,WeatherCatV1.02B3,2013-08-09 07:47:00,
2013-08-09 00:52:00,54.8,51.9,29.68,WSW,256,0.0,0.0,90,0.00,,,0.00,0,WeatherCatV1.02B3,2013-08-09 07:52:00,
2013-08-09 00:57:00,54.5,51.6,29.68,WSW,256,0.0,1.0,90,0.00,,,0.00,0,WeatherCatV1.02B3,2013-08-09 07:57:00,
2013-08-09 01:02:00,54.1,51.2,29.68,WSW,256,0.0,0.0,90,0.00,,,0.00,0,WeatherCatV1.02B3,2013-08-09 08:02:00,
2013-08-09 01:07:00,54.2,51.6,29.68,WSW,256,0.0,0.0,91,0.00,,,0.00,0,WeatherCatV1.02B3,2013-08-09 08:07:00,
2013-08-09 01:12:00,54.2,51.3,29.68,WSW,256,0.0,0.0,90,0.00,,,0.00,0,WeatherCatV1.02B3,2013-08-09 08:12:00,
2013-08-09 01:17:00,54.5,51.9,29.68,WSW,256,0.0,0.0,91,0.00,,,0.00,0,WeatherCatV1.02B3,2013-08-09 08:17:00,
2013-08-09 01:22:00,54.0,51.1,29.68,WSW,256,0.0,0.0,90,0.00,,,0.00,0,WeatherCatV1.02B3,2013-08-09 08:22:00,
2013-08-09 01:27:00,53.9,51.3,29.68,WSW,256,0.0,0.0,91,0.00,,,0.00,0,WeatherCatV1.02B3,2013-08-09 08:27:00,
2013-08-09 01:32:00,53.6,50.7,29.68,WSW,256,0.0,0.0,90,0.00,,,0.00,0,WeatherCatV1.02B3,2013-08-09 08:32:00,
2013-08-09 01:37:00,53.5,50.6,29.68,WSW,256,0.0,0.0,90,0.00,,,0.00,0,WeatherCatV1.02B3,2013-08-09 08:37:00,
2013-08-09 01:42:00,53.6,51.0,29.68,WSW,256,0.0,0.0,91,0.00,,,0.00,0,WeatherCatV1.02B3,2013-08-09 08:42:00,
2013-08-09 01:47:00,53.5,50.9,29.68,WSW,256,0.0,0.0,91,0.00,,,0.00,0,WeatherCatV1.02B3,2013-08-09 08:47:00,
2013-08-09 01:52:00,52.9,50.3,29.68,WSW,256,0.0,0.0,91,0.00,,,0.00,0,WeatherCatV1.02B3,2013-08-09 08:52:00,
2013-08-09 01:57:00,52.6,50.0,29.68,WSW,256,0.0,0.0,91,0.00,,,0.00,0,WeatherCatV1.02B3,2013-08-09 08:57:00,
2013-08-09 02:02:00,52.7,50.4,29.68,WSW,256,0.0,0.0,92,0.00,,,0.00,0,WeatherCatV1.02B3,2013-08-09 09:02:00,
2013-08-09 02:07:00,53.0,50.7,29.68,WSW,256,0.0,0.0,92,0.00,,,0.00,0,WeatherCatV1.02B3,2013-08-09 09:07:00,
2013-08-09 02:12:00,53.0,50.7,29.68,WSW,256,0.0,0.0,92,0.00,,,0.00,0,WeatherCatV1.02B3,2013-08-09 09:12:00,
2013-08-09 02:17:00,52.8,50.5,29.68,WSW,256,0.0,0.0,92,0.00,,,0.00,0,WeatherCatV1.02B3,2013-08-09 09:17:00,
2013-08-09 02:22:00,52.6,50.3,29.68,WSW,256,0.0,0.0,92,0.00,,,0.00,0,WeatherCatV1.02B3,2013-08-09 09:22:00,
2013-08-09 02:27:00,52.8,50.5,29.68,WSW,256,0.0,0.0,92,0.00,,,0.00,0,WeatherCatV1.02B3,2013-08-09 09:27:00,
2013-08-09 02:32:00,52.2,49.9,29.68,WSW,256,0.0,1.0,92,0.00,,,0.00,0,WeatherCatV1.02B3,2013-08-09 09:32:00,
2013-08-09 02:37:00,52.2,49.9,29.68,WSW,256,0.0,0.0,92,0.00,,,0.00,0,WeatherCatV1.02B3,2013-08-09 09:37:00,
2013-08-09 02:42:00,52.1,49.8,29.68,WSW,256,0.0,0.0,92,0.00,,,0.00,0,WeatherCatV1.02B3,2013-08-09 09:42:00,
2013-08-09 02:47:00,52.0,49.7,29.68,WSW,256,0.0,0.0,92,0.00,,,0.00,0,WeatherCatV1.02B3,2013-08-09 09:47:00,
2013-08-09 02:52:00,52.3,50.3,29.68,WSW,256,0.0,0.0,93,0.00,,,0.00,0,WeatherCatV1.02B3,2013-08-09 09:52:00,
2013-08-09 02:57:00,52.6,50.3,29.68,WSW,256,0.0,0.0,92,0.00,,,0.00,0,WeatherCatV1.02B3,2013-08-09 09:57:00,
2013-08-09 03:02:00,53.3,51.3,29.68,WSW,256,0.0,0.0,93,0.00,,,0.00,0,WeatherCatV1.02B3,2013-08-09 10:02:00,
2013-08-09 03:07:00,53.6,51.3,29.68,WSW,256,0.0,0.0,92,0.00,,,0.00,0,WeatherCatV1.02B3,2013-08-09 10:07:00,
2013-08-09 03:12:00,53.8,51.5,29.68,WSW,256,0.0,0.0,92,0.00,,,0.00,0,WeatherCatV1.02B3,2013-08-09 10:12:00,
2013-08-09 03:17:00,53.9,51.3,29.68,WSW,256,0.0,0.0,91,0.00,,,0.00,0,WeatherCatV1.02B3,2013-08-09 10:17:00,
2013-08-09 03:22:00,53.8,51.2,29.68,WSW,256,0.0,0.0,91,0.00,,,0.00,0,WeatherCatV1.02B3,2013-08-09 10:22:00,
2013-08-09 03:27:00,53.7,51.1,29.68,WSW,256,0.0,0.0,91,0.00,,,0.00,0,WeatherCatV1.02B3,2013-08-09 10:27:00,
2013-08-09 03:32:00,53.9,51.3,29.68,WSW,256,0.0,0.0,91,0.00,,,0.00,0,WeatherCatV1.02B3,2013-08-09 10:32:00,
2013-08-09 03:37:00,54.0,51.4,29.68,WSW,256,0.0,0.0,91,0.00,,,0.00,0,WeatherCatV1.02B3,2013-08-09 10:37:00,
2013-08-09 03:42:00,54.4,51.8,29.68,WSW,256,0.0,0.0,91,0.00,,,0.00,0,WeatherCatV1.02B3,2013-08-09 10:42:00,
2013-08-09 03:47:00,54.7,52.1,29.68,WSW,256,0.0,0.0,91,0.00,,,0.00,0,WeatherCatV1.02B3,2013-08-09 10:47:00,
2013-08-09 03:52:00,54.7,52.1,29.68,WSW,256,0.0,0.0,91,0.00,,,0.00,0,WeatherCatV1.02B3,2013-08-09 10:52:00,
2013-08-09 03:57:00,55.1,52.5,29.68,WSW,256,0.0,0.0,91,0.00,,,0.00,0,WeatherCatV1.02B3,2013-08-09 10:57:00,
2013-08-09 04:02:00,55.1,52.2,29.68,WSW,256,0.0,0.0,90,0.00,,,0.00,0,WeatherCatV1.02B3,2013-08-09 11:02:00,
2013-08-09 04:07:00,55.2,52.0,29.68,WSW,256,0.0,0.0,89,0.00,,,0.00,0,WeatherCatV1.02B3,2013-08-09 11:07:00,
2013-08-09 04:12:00,55.5,52.6,29.68,NNE,31,0.0,1.0,90,0.00,,,0.00,0,WeatherCatV1.02B3,2013-08-09 11:12:00,
2013-08-09 04:17:00,55.7,52.8,29.68,NNE,31,0.0,0.0,90,0.00,,,0.00,0,WeatherCatV1.02B3,2013-08-09 11:17:00,
2013-08-09 04:22:00,55.9,53.0,29.68,NNE,31,0.0,0.0,90,0.00,,,0.00,0,WeatherCatV1.02B3,2013-08-09 11:22:00,
2013-08-09 04:27:00,55.8,52.9,29.68,NNE,31,0.0,0.0,90,0.00,,,0.00,0,WeatherCatV1.02B3,2013-08-09 11:27:00,
2013-08-09 04:32:00,56.0,53.1,29.68,NNE,31,0.0,0.0,90,0.00,,,0.00,0,WeatherCatV1.02B3,2013-08-09 11:32:00,
2013-08-09 04:37:00,56.0,53.1,29.68,NNE,30,0.0,1.0,90,0.00,,,0.00,0,WeatherCatV1.02B3,2013-08-09 11:37:00,
2013-08-09 04:42:00,55.9,53.3,29.68,NNE,30,0.0,1.0,91,0.00,,,0.00,0,WeatherCatV1.02B3,2013-08-09 11:42:00,
2013-08-09 04:47:00,55.8,53.2,29.68,North,0,0.0,1.0,91,0.00,,,0.00,0,WeatherCatV1.02B3,2013-08-09 11:47:00,
2013-08-09 04:52:00,55.7,53.1,29.68,North,0,0.0,0.0,91,0.00,,,0.00,0,WeatherCatV1.02B3,2013-08-09 11:52:00,
2013-08-09 04:57:00,55.6,53.3,29.68,North,0,0.0,0.0,92,0.00,,,0.00,0,WeatherCatV1.02B3,2013-08-09 11:57:00,
2013-08-09 05:02:00,55.5,53.2,29.68,North,0,0.0,0.0,92,0.00,,,0.00,0,WeatherCatV1.02B3,2013-08-09 12:02:00,
2013-08-09 05:07:00,55.4,53.1,29.68,North,0,0.0,0.0,92,0.00,,,0.00,0,WeatherCatV1.02B3,2013-08-09 12:07:00,
2013-08-09 05:12:00,55.4,53.1,29.68,North,0,0.0,0.0,92,0.00,,,0.00,0,WeatherCatV1.02B3,2013-08-09 12:12:00,
2013-08-09 05:17:00,55.3,53.0,29.68,North,0,0.0,0.0,92,0.00,,,0.00,0,WeatherCatV1.02B3,2013-08-09 12:17:00,
2013-08-09 05:22:00,55.3,53.0,29.68,North,0,0.0,0.0,92,0.00,,,0.00,0,WeatherCatV1.02B3,2013-08-09 12:22:00,
2013-08-09 05:27:00,55.2,52.9,29.68,North,0,0.0,0.0,92,0.00,,,0.00,0,WeatherCatV1.02B3,2013-08-09 12:27:00,
2013-08-09 05:32:00,55.1,52.8,29.68,North,0,0.0,0.0,92,0.00,,,0.00,0,WeatherCatV1.02B3,2013-08-09 12:32:00,
2013-08-09 05:37:00,55.1,52.8,29.68,North,0,0.0,0.0,92,0.00,,,0.00,0,WeatherCatV1.02B3,2013-08-09 12:37:00,
2013-08-09 05:42:00,54.9,52.6,29.68,North,0,0.0,0.0,92,0.00,,,0.00,0,WeatherCatV1.02B3,2013-08-09 12:42:00,
2013-08-09 05:56:00,54.8,52.8,29.68,North,0,0.0,0.0,93,0.00,,,0.00,0,WeatherCatV1.02B3,2013-08-09 12:56:00,
2013-08-09 06:01:00,54.7,52.7,29.68,North,0,0.0,0.0,93,0.00,,,0.00,0,WeatherCatV1.02B3,2013-08-09 13:01:00,
2013-08-09 06:06:00,54.7,52.7,29.68,North,0,0.0,0.0,93,0.00,,,0.00,0,WeatherCatV1.02B3,2013-08-09 13:06:00,
2013-08-09 06:11:00,54.6,52.6,29.68,North,0,0.0,0.0,93,0.00,,,0.00,0,WeatherCatV1.02B3,2013-08-09 13:11:00,
2013-08-09 06:16:00,54.6,52.6,29.68,North,0,0.0,0.0,93,0.00,,,0.00,0,WeatherCatV1.02B3,2013-08-09 13:16:00,
2013-08-09 06:21:00,54.7,53.0,29.68,North,0,0.0,0.0,94,0.00,,,0.00,0,WeatherCatV1.02B3,2013-08-09 13:21:00,
2013-08-09 06:26:00,54.7,53.0,29.68,North,0,0.0,1.0,94,0.00,,,0.00,5,WeatherCatV1.02B3,2013-08-09 13:26:00,
2013-08-09 06:31:00,54.7,52.7,29.68,North,0,1.0,1.0,93,0.00,,,0.00,7,WeatherCatV1.02B3,2013-08-09 13:31:00,
2013-08-09 06:36:00,54.6,52.9,29.68,North,0,0.0,1.0,94,0.00,,,0.00,11,WeatherCatV1.02B3,2013-08-09 13:36:00,
2013-08-09 06:41:00,54.7,53.0,29.68,North,0,0.0,0.0,94,0.00,,,0.00,14,WeatherCatV1.02B3,2013-08-09 13:41:00,
2013-08-09 06:46:00,54.8,53.1,29.68,North,0,0.0,0.0,94,0.00,,,0.00,16,WeatherCatV1.02B3,2013-08-09 13:46:00,
2013-08-09 06:51:00,54.8,53.1,29.68,North,0,0.0,0.0,94,0.00,,,0.00,21,WeatherCatV1.02B3,2013-08-09 13:51:00,
2013-08-09 06:56:00,55.0,53.3,29.68,North,0,0.0,0.0,94,0.00,,,0.00,26,WeatherCatV1.02B3,2013-08-09 13:56:00,
2013-08-09 07:01:00,55.0,53.3,29.68,North,0,0.0,0.0,94,0.00,,,0.00,32,WeatherCatV1.02B3,2013-08-09 14:01:00,
2013-08-09 07:06:00,55.1,53.4,29.68,North,0,0.0,0.0,94,0.00,,,0.00,35,WeatherCatV1.02B3,2013-08-09 14:06:00,
2013-08-09 07:11:00,55.2,53.5,29.68,North,0,0.0,0.0,94,0.00,,,0.00,42,WeatherCatV1.02B3,2013-08-09 14:11:00,
2013-08-09 07:16:00,55.2,53.5,29.68,North,0,0.0,1.0,94,0.00,,,0.00,58,WeatherCatV1.02B3,2013-08-09 14:16:00,
2013-08-09 07:21:00,55.3,53.6,29.68,North,0,0.0,1.0,94,0.00,,,0.00,93,WeatherCatV1.02B3,2013-08-09 14:21:00,
2013-08-09 07:26:00,55.5,53.8,29.68,North,0,0.0,0.0,94,0.00,,,0.00,76,WeatherCatV1.02B3,2013-08-09 14:26:00,
2013-08-09 07:31:00,55.4,53.7,29.68,North,0,0.0,1.0,94,0.00,,,0.00,98,WeatherCatV1.02B3,2013-08-09 14:31:00,
2013-08-09 07:36:00,55.3,53.6,29.68,NNE,26,0.0,0.0,94,0.00,,,0.00,97,WeatherCatV1.02B3,2013-08-09 14:36:00,
2013-08-09 07:41:00,55.4,53.7,29.68,ENE,69,0.0,1.0,94,0.00,,,0.00,102,WeatherCatV1.02B3,2013-08-09 14:41:00,
2013-08-09 07:46:00,55.7,54.0,29.68,ENE,73,0.0,1.0,94,0.00,,,0.00,153,WeatherCatV1.02B3,2013-08-09 14:46:00,
2013-08-09 07:51:00,56.0,54.3,29.68,ENE,73,0.0,0.0,94,0.00,,,0.00,134,WeatherCatV1.02B3,2013-08-09 14:51:00,
2013-08-09 07:56:00,56.0,54.0,29.68,ESE,113,0.0,1.0,93,0.00,,,0.00,90,WeatherCatV1.02B3,2013-08-09 14:56:00,
2013-08-09 08:01:00,56.2,54.2,29.68,SSW,204,0.0,0.0,93,0.00,,,0.00,51,WeatherCatV1.02B3,2013-08-09 15:01:00,
2013-08-09 08:06:00,56.7,54.4,29.68,SSE,163,0.0,1.0,92,0.00,,,0.00,49,WeatherCatV1.02B3,2013-08-09 15:06:00,
2013-08-09 08:11:00,57.1,54.8,29.68,SW,232,0.0,1.0,92,0.00,,,0.00,67,WeatherCatV1.02B3,2013-08-09 15:11:00,
2013-08-09 08:16:00,57.6,55.0,29.68,ESE,109,0.0,1.0,91,0.00,,,0.00,81,WeatherCatV1.02B3,2013-08-09 15:16:00,
2013-08-09 08:21:00,58.1,55.2,29.68,SSE,159,1.0,1.0,90,0.00,,,0.00,330,WeatherCatV1.02B3,2013-08-09 15:21:00,
2013-08-09 08:26:00,58.6,55.4,29.68,East,101,0.0,2.0,89,0.00,,,0.00,350,WeatherCatV1.02B3,2013-08-09 15:26:00,
2013-08-09 08:31:00,59.6,55.7,29.68,South,182,0.0,2.0,87,0.00,,,0.00,371,WeatherCatV1.02B3,2013-08-09 15:31:00,
2013-08-09 08:36:00,61.0,56.8,29.68,WSW,255,2.0,2.0,86,0.00,,,0.00,385,WeatherCatV1.02B3,2013-08-09 15:36:00,
2013-08-09 08:41:00,61.8,56.2,29.68,South,169,0.0,1.0,82,0.00,,,0.00,404,WeatherCatV1.02B3,2013-08-09 15:41:00,
2013-08-09 08:46:00,61.9,56.3,29.68,East,79,0.0,1.0,82,0.00,,,0.00,422,WeatherCatV1.02B3,2013-08-09 15:46:00,
2013-08-09 08:51:00,62.7,56.8,29.68,West,265,1.0,3.0,81,0.00,,,0.00,438,WeatherCatV1.02B3,2013-08-09 15:51:00,
2013-08-09 08:56:00,63.4,56.8,29.68,WSW,258,2.0,2.0,79,0.00,,,0.00,457,WeatherCatV1.02B3,2013-08-09 15:56:00,
2013-08-09 09:01:00,63.8,56.8,29.68,South,178,2.0,2.0,78,0.00,,,0.00,471,WeatherCatV1.02B3,2013-08-09 16:01:00,
2013-08-09 09:06:00,64.1,57.1,29.68,West,263,3.0,5.0,78,0.00,,,0.00,489,WeatherCatV1.02B3,2013-08-09 16:06:00,
2013-08-09 09:11:00,65.2,57.1,29.68,SE,136,1.0,3.0,75,0.00,,,0.00,497,WeatherCatV1.02B3,2013-08-09 16:11:00,
2013-08-09 09:16:00,65.8,57.6,29.68,SSW,200,0.0,2.0,75,0.00,,,0.00,517,WeatherCatV1.02B3,2013-08-09 16:16:00,
2013-08-09 09:21:00,65.9,57.7,29.68,West,276,1.0,2.0,75,0.00,,,0.00,533,WeatherCatV1.02B3,2013-08-09 16:21:00,
2013-08-09 09:26:00,66.8,57.5,29.68,WNW,297,1.0,3.0,72,0.00,,,0.00,548,WeatherCatV1.02B3,2013-08-09 16:26:00,
2013-08-09 09:31:00,67.3,58.0,29.68,WNW,285,5.0,5.0,72,0.00,,,0.00,563,WeatherCatV1.02B3,2013-08-09 16:31:00,
2013-08-09 09:37:00,67.5,58.1,29.68,WNW,290,0.0,4.0,72,0.00,,,0.00,577,WeatherCatV1.02B3,2013-08-09 16:37:00,
2013-08-09 09:42:00,68.3,58.1,29.68,West,268,3.0,3.0,70,0.00,,,0.00,592,WeatherCatV1.02B3,2013-08-09 16:42:00,
2013-08-09 09:47:00,68.5,58.3,29.68,West,280,3.0,6.0,70,0.00,,,0.00,605,WeatherCatV1.02B3,2013-08-09 16:47:00,
2013-08-09 09:52:00,69.1,58.5,29.68,NW,318,4.0,4.0,69,0.00,,,0.00,617,WeatherCatV1.02B3,2013-08-09 16:52:00,
2013-08-09 09:57:00,69.7,59.1,29.68,SW,227,4.0,6.0,69,0.00,,,0.00,631,WeatherCatV1.02B3,2013-08-09 16:57:00,
2013-08-09 10:02:00,70.1,58.6,29.68,NW,313,4.0,4.0,67,0.00,,,0.00,645,WeatherCatV1.02B3,2013-08-09 17:02:00,
2013-08-09 10:07:00,70.5,58.6,29.68,West,279,5.0,6.0,66,0.00,,,0.00,659,WeatherCatV1.02B3,2013-08-09 17:07:00,
2013-08-09 10:12:00,70.9,59.0,29.68,WNW,302,4.0,6.0,66,0.00,,,0.00,671,WeatherCatV1.02B3,2013-08-09 17:12:00,
2013-08-09 10:17:00,70.9,58.5,29.68,SW,217,4.0,8.0,65,0.00,,,0.00,686,WeatherCatV1.02B3,2013-08-09 17:17:00,
2013-08-09 10:22:00,71.1,58.7,29.68,NNW,336,3.0,5.0,65,0.00,,,0.00,698,WeatherCatV1.02B3,2013-08-09 17:22:00,
2013-08-09 10:27:00,71.3,58.5,29.68,NW,306,3.0,6.0,64,0.00,,,0.00,708,WeatherCatV1.02B3,2013-08-09 17:27:00,
2013-08-09 10:32:00,71.1,58.3,29.68,WNW,294,3.0,6.0,64,0.00,,,0.00,721,WeatherCatV1.02B3,2013-08-09 17:32:00,
2013-08-09 10:37:00,71.5,58.7,29.68,West,267,5.0,6.0,64,0.00,,,0.00,731,WeatherCatV1.02B3,2013-08-09 17:37:00,
2013-08-09 10:42:00,72.1,58.8,29.68,WNW,287,3.0,7.0,63,0.00,,,0.00,745,WeatherCatV1.02B3,2013-08-09 17:42:00,
2013-08-09 10:47:00,71.9,58.6,29.68,SSW,202,3.0,7.0,63,0.00,,,0.00,756,WeatherCatV1.02B3,2013-08-09 17:47:00,
2013-08-09 10:52:00,71.9,59.0,29.68,West,276,5.0,8.0,64,0.00,,,0.00,765,WeatherCatV1.02B3,2013-08-09 17:52:00,
2013-08-09 10:57:00,72.4,59.1,29.68,WNW,292,2.0,7.0,63,0.00,,,0.00,779,WeatherCatV1.02B3,2013-08-09 17:57:00,
2013-08-09 11:02:00,72.9,59.1,29.68,West,277,3.0,6.0,62,0.00,,,0.00,786,WeatherCatV1.02B3,2013-08-09 18:02:00,
2013-08-09 11:07:00,73.4,59.1,29.68,West,261,5.0,8.0,61,0.00,,,0.00,795,WeatherCatV1.02B3,2013-08-09 18:07:00,
2013-08-09 11:12:00,73.3,59.0,29.68,NNW,338,3.0,7.0,61,0.00,,,0.00,807,WeatherCatV1.02B3,2013-08-09 18:12:00,
2013-08-09 11:17:00,73.1,59.3,29.68,WSW,242,5.0,7.0,62,0.00,,,0.00,814,WeatherCatV1.02B3,2013-08-09 18:17:00,
2013-08-09 11:22:00,72.7,58.9,29.68,NE,51,3.0,7.0,62,0.00,,,0.00,821,WeatherCatV1.02B3,2013-08-09 18:22:00,
2013-08-09 11:27:00,72.4,59.1,29.68,WNW,292,3.0,7.0,63,0.00,,,0.00,830,WeatherCatV1.02B3,2013-08-09 18:27:00,
2013-08-09 11:32:00,73.0,59.2,29.68,WSW,248,6.0,7.0,62,0.00,,,0.00,838,WeatherCatV1.02B3,2013-08-09 18:32:00,
2013-08-09 11:37:00,73.3,59.0,29.68,NNW,328,8.0,9.0,61,0.00,,,0.00,842,WeatherCatV1.02B3,2013-08-09 18:37:00,
2013-08-09 11:42:00,73.1,59.3,29.68,SW,232,2.0,3.0,62,0.00,,,0.00,844,WeatherCatV1.02B3,2013-08-09 18:42:00,
2013-08-09 11:47:00,73.5,59.2,29.68,SW,216,3.0,8.0,61,0.00,,,0.00,853,WeatherCatV1.02B3,2013-08-09 18:47:00,
2013-08-09 11:52:00,73.1,58.4,29.68,WNW,294,6.0,6.0,60,0.00,,,0.00,861,WeatherCatV1.02B3,2013-08-09 18:52:00,
2013-08-09 11:57:00,73.1,59.3,29.68,South,185,1.0,5.0,62,0.00,,,0.00,865,WeatherCatV1.02B3,2013-08-09 18:57:00,
2013-08-09 12:02:00,73.6,58.8,29.68,WSW,254,1.0,6.0,60,0.00,,,0.00,872,WeatherCatV1.02B3,2013-08-09 19:02:00,
2013-08-09 12:07:00,74.1,59.3,29.68,WNW,295,2.0,7.0,60,0.00,,,0.00,877,WeatherCatV1.02B3,2013-08-09 19:07:00,
2013-08-09 12:12:00,73.7,58.5,29.68,South,180,1.0,6.0,59,0.00,,,0.00,882,WeatherCatV1.02B3,2013-08-09 19:12:00,
2013-08-09 12:17:00,73.5,58.7,29.68,NNW,335,3.0,4.0,60,0.00,,,0.00,886,WeatherCatV1.02B3,2013-08-09 19:17:00,
2013-08-09 12:22:00,74.3,59.0,29.68,North,355,1.0,5.0,59,0.00,,,0.00,889,WeatherCatV1.02B3,2013-08-09 19:22:00,
2013-08-09 12:27:00,73.3,59.0,29.68,NW,311,10.0,11.0,61,0.00,,,0.00,889,WeatherCatV1.02B3,2013-08-09 19:27:00,
2013-08-09 12:32:00,73.9,58.7,29.68,East,91,1.0,4.0,59,0.00,,,0.00,896,WeatherCatV1.02B3,2013-08-09 19:32:00,
2013-08-09 12:37:00,74.1,58.8,29.68,SW,229,5.0,7.0,59,0.00,,,0.00,898,WeatherCatV1.02B3,2013-08-09 19:37:00,
2013-08-09 12:42:00,74.5,59.2,29.68,West,269,4.0,8.0,59,0.00,,,0.00,900,WeatherCatV1.02B3,2013-08-09 19:42:00,
2013-08-09 12:47:00,73.7,59.4,29.68,West,274,5.0,7.0,61,0.00,,,0.00,900,WeatherCatV1.02B3,2013-08-09 19:47:00,
2013-08-09 12:52:00,74.2,58.9,29.68,West,281,7.0,8.0,59,0.00,,,0.00,896,WeatherCatV1.02B3,2013-08-09 19:52:00,
2013-08-09 12:57:00,74.3,59.0,29.68,WSW,258,5.0,8.0,59,0.00,,,0.00,902,WeatherCatV1.02B3,2013-08-09 19:57:00,
2013-08-09 13:02:00,74.6,59.3,29.68,NNE,12,2.0,4.0,59,0.00,,,0.00,896,WeatherCatV1.02B3,2013-08-09 20:02:00,
2013-08-09 13:07:00,75.1,59.3,29.68,SE,134,3.0,8.0,58,0.00,,,0.00,895,WeatherCatV1.02B3,2013-08-09 20:07:00,
2013-08-09 13:12:00,76.2,59.3,29.68,WNW,296,1.0,9.0,56,0.00,,,0.00,896,WeatherCatV1.02B3,2013-08-09 20:12:00,
2013-08-09 13:17:00,75.2,58.9,29.68,West,261,4.0,7.0,57,0.00,,,0.00,898,WeatherCatV1.02B3,2013-08-09 20:17:00,
2013-08-09 13:22:00,74.8,59.5,29.68,SW,221,4.0,4.0,59,0.00,,,0.00,896,WeatherCatV1.02B3,2013-08-09 20:22:00,
2013-08-09 13:27:00,76.2,59.3,29.68,WNW,284,4.0,5.0,56,0.00,,,0.00,893,WeatherCatV1.02B3,2013-08-09 20:27:00,
2013-08-09 13:32:00,77.7,59.7,29.68,ESE,113,1.0,3.0,54,0.00,,,0.00,898,WeatherCatV1.02B3,2013-08-09 20:32:00,
2013-08-09 13:37:00,78.0,60.0,29.68,WNW,286,1.0,6.0,54,0.00,,,0.00,893,WeatherCatV1.02B3,2013-08-09 20:37:00,
2013-08-09 13:42:00,77.4,59.9,29.68,West,281,4.0,7.0,55,0.00,,,0.00,891,WeatherCatV1.02B3,2013-08-09 20:42:00,
2013-08-09 13:47:00,77.1,59.2,29.68,NW,312,5.0,7.0,54,0.00,,,0.00,886,WeatherCatV1.02B3,2013-08-09 20:47:00,
2013-08-09 13:52:00,77.6,59.6,29.68,WNW,293,4.0,8.0,54,0.00,,,0.00,881,WeatherCatV1.02B3,2013-08-09 20:52:00,
2013-08-09 13:57:00,78.0,59.5,29.68,WSW,239,5.0,7.0,53,0.00,,,0.00,882,WeatherCatV1.02B3,2013-08-09 20:57:00,
2013-08-09 14:02:00,77.1,59.2,29.68,WNW,291,5.0,6.0,54,0.00,,,0.00,872,WeatherCatV1.02B3,2013-08-09 21:02:00,
2013-08-09 14:07:00,76.6,59.2,29.68,WNW,294,6.0,7.0,55,0.00,,,0.00,868,WeatherCatV1.02B3,2013-08-09 21:07:00,
2013-08-09 14:12:00,76.6,59.2,29.68,WSW,258,5.0,9.0,55,0.00,,,0.00,865,WeatherCatV1.02B3,2013-08-09 21:12:00,
2013-08-09 14:17:00,77.5,59.5,29.68,WNW,298,1.0,5.0,54,0.00,,,0.00,858,WeatherCatV1.02B3,2013-08-09 21:17:00,
2013-08-09 14:22:00,77.9,58.8,29.68,WSW,253,5.0,8.0,52,0.00,,,0.00,856,WeatherCatV1.02B3,2013-08-09 21:22:00,
2013-08-09 14:27:00,77.5,59.0,29.68,West,259,1.0,7.0,53,0.00,,,0.00,847,WeatherCatV1.02B3,2013-08-09 21:27:00,
2013-08-09 14:32:00,77.0,59.1,29.68,NW,321,6.0,9.0,54,0.00,,,0.00,842,WeatherCatV1.02B3,2013-08-09 21:32:00,
2013-08-09 14:37:00,76.9,59.5,29.68,WSW,254,2.0,6.0,55,0.00,,,0.00,835,WeatherCatV1.02B3,2013-08-09 21:37:00,
2013-08-09 14:42:00,77.9,59.4,29.68,WNW,289,4.0,8.0,53,0.00,,,0.00,828,WeatherCatV1.02B3,2013-08-09 21:42:00,
2013-08-09 14:47:00,78.7,59.6,29.68,SSE,158,0.0,4.0,52,0.00,,,0.00,821,WeatherCatV1.02B3,2013-08-09 21:47:00,
2013-08-09 14:52:00,79.2,59.5,29.68,NW,313,2.0,8.0,51,0.00,,,0.00,812,WeatherCatV1.02B3,2013-08-09 21:52:00,
2013-08-09 14:57:00,78.8,59.1,29.68,WSW,252,5.0,7.0,51,0.00,,,0.00,805,WeatherCatV1.02B3,2013-08-09 21:57:00,
2013-08-09 15:02:00,78.6,59.5,29.68,West,281,3.0,8.0,52,0.00,,,0.00,795,WeatherCatV1.02B3,2013-08-09 22:02:00,
2013-08-09 15:07:00,77.8,59.3,29.68,WNW,300,1.0,8.0,53,0.00,,,0.00,784,WeatherCatV1.02B3,2013-08-09 22:07:00,
2013-08-09 15:12:00,78.2,59.1,29.68,WSW,244,4.0,7.0,52,0.00,,,0.00,772,WeatherCatV1.02B3,2013-08-09 22:12:00,
2013-08-09 15:17:00,78.2,58.6,29.68,NNE,17,2.0,3.0,51,0.00,,,0.00,765,WeatherCatV1.02B3,2013-08-09 22:17:00,
2013-08-09 15:22:00,77.1,58.1,29.68,SSE,148,4.0,10.0,52,0.00,,,0.00,756,WeatherCatV1.02B3,2013-08-09 22:22:00,
2013-08-09 15:27:00,76.5,58.6,29.68,SW,234,4.0,8.0,54,0.00,,,0.00,747,WeatherCatV1.02B3,2013-08-09 22:27:00,
2013-08-09 15:32:00,77.7,58.7,29.68,East,92,0.0,3.0,52,0.00,,,0.00,735,WeatherCatV1.02B3,2013-08-09 22:32:00,
2013-08-09 15:37:00,78.0,58.9,29.68,ENE,57,1.0,3.0,52,0.00,,,0.00,722,WeatherCatV1.02B3,2013-08-09 22:37:00,
2013-08-09 15:42:00,79.2,58.9,29.68,NE,54,2.0,3.0,50,0.00,,,0.00,712,WeatherCatV1.02B3,2013-08-09 22:42:00,
2013-08-09 15:47:00,78.3,58.1,29.68,North,10,2.0,6.0,50,0.00,,,0.00,698,WeatherCatV1.02B3,2013-08-09 22:47:00,
2013-08-09 15:52:00,78.3,58.7,29.68,SE,126,0.0,2.0,51,0.00,,,0.00,687,WeatherCatV1.02B3,2013-08-09 22:52:00,
2013-08-09 15:57:00,78.6,58.4,29.68,NNE,15,1.0,9.0,50,0.00,,,0.00,675,WeatherCatV1.02B3,2013-08-09 22:57:00,
2013-08-09 16:02:00,78.1,57.4,29.68,North,5,0.0,4.0,49,0.00,,,0.00,661,WeatherCatV1.02B3,2013-08-09 23:02:00,
2013-08-09 16:07:00,77.4,57.3,29.68,East,96,2.0,4.0,50,0.00,,,0.00,647,WeatherCatV1.02B3,2013-08-09 23:07:00,
2013-08-09 16:12:00,77.6,55.8,29.68,ENE,65,2.0,7.0,47,0.00,,,0.00,635,WeatherCatV1.02B3,2013-08-09 23:12:00,
2013-08-09 16:17:00,78.3,57.0,29.68,WNW,291,2.0,2.0,48,0.00,,,0.00,619,WeatherCatV1.02B3,2013-08-09 23:17:00,
2013-08-09 16:22:00,78.2,56.9,29.68,NNW,337,1.0,3.0,48,0.00,,,0.00,605,WeatherCatV1.02B3,2013-08-09 23:22:00,
2013-08-09 16:27:00,78.1,56.2,29.68,ENE,68,0.0,4.0,47,0.00,,,0.00,589,WeatherCatV1.02B3,2013-08-09 23:27:00,
2013-08-09 16:32:00,78.6,57.2,29.68,East,91,2.0,3.0,48,0.00,,,0.00,575,WeatherCatV1.02B3,2013-08-09 23:32:00,
2013-08-09 16:37:00,77.8,57.1,29.68,NW,320,1.0,2.0,49,0.00,,,0.00,559,WeatherCatV1.02B3,2013-08-09 23:37:00,
2013-08-09 16:42:00,77.2,57.6,29.68,East,93,1.0,3.0,51,0.00,,,0.00,540,WeatherCatV1.02B3,2013-08-09 23:42:00,
2013-08-09 16:47:00,77.8,57.1,29.68,SW,229,3.0,3.0,49,0.00,,,0.00,529,WeatherCatV1.02B3,2013-08-09 23:47:00,
2013-08-09 16:52:00,76.8,57.3,29.68,North,9,0.0,2.0,51,0.00,,,0.00,515,WeatherCatV1.02B3,2013-08-09 23:52:00,
2013-08-09 16:57:00,77.2,55.4,29.68,NNW,341,1.0,1.0,47,0.00,,,0.00,501,WeatherCatV1.02B3,2013-08-09 23:57:00,
2013-08-09 17:03:00,77.9,56.0,29.68,West,278,2.0,2.0,47,0.00,,,0.00,485,WeatherCatV1.02B3,2013-08-10 00:03:00,
2013-08-09 17:08:00,77.3,56.6,29.68,East,82,5.0,5.0,49,0.00,,,0.00,469,WeatherCatV1.02B3,2013-08-10 00:08:00,
2013-08-09 17:13:00,77.6,55.8,29.68,South,181,2.0,2.0,47,0.00,,,0.00,452,WeatherCatV1.02B3,2013-08-10 00:13:00,
2013-08-09 17:18:00,77.6,55.8,29.68,NW,314,0.0,3.0,47,0.00,,,0.00,439,WeatherCatV1.02B3,2013-08-10 00:18:00,
2013-08-09 17:23:00,76.4,56.4,29.68,North,0,1.0,3.0,50,0.00,,,0.00,420,WeatherCatV1.02B3,2013-08-10 00:23:00,
2013-08-09 17:28:00,76.3,56.3,29.68,WNW,285,3.0,8.0,50,0.00,,,0.00,406,WeatherCatV1.02B3,2013-08-10 00:28:00,
2013-08-09 17:33:00,76.5,56.5,29.68,West,271,1.0,7.0,50,0.00,,,0.00,390,WeatherCatV1.02B3,2013-08-10 00:33:00,
2013-08-09 17:38:00,76.2,56.7,29.68,WNW,295,3.0,9.0,51,0.00,,,0.00,373,WeatherCatV1.02B3,2013-08-10 00:38:00,
2013-08-09 17:43:00,76.0,56.5,29.68,West,276,6.0,7.0,51,0.00,,,0.00,355,WeatherCatV1.02B3,2013-08-10 00:43:00,
2013-08-09 17:48:00,76.2,56.2,29.68,West,262,6.0,8.0,50,0.00,,,0.00,338,WeatherCatV1.02B3,2013-08-10 00:48:00,
2013-08-09 17:53:00,76.0,54.9,29.68,West,278,2.0,4.0,48,0.00,,,0.00,322,WeatherCatV1.02B3,2013-08-10 00:53:00,
2013-08-09 17:58:00,75.7,55.7,29.68,WNW,284,6.0,8.0,50,0.00,,,0.00,309,WeatherCatV1.02B3,2013-08-10 00:58:00,
2013-08-09 18:03:00,75.6,56.7,29.68,West,273,4.0,7.0,52,0.00,,,0.00,292,WeatherCatV1.02B3,2013-08-10 01:03:00,
2013-08-09 18:08:00,75.3,57.0,29.68,WNW,284,4.0,7.0,53,0.00,,,0.00,274,WeatherCatV1.02B3,2013-08-10 01:08:00,
2013-08-09 18:13:00,75.3,57.0,29.68,West,279,5.0,7.0,53,0.00,,,0.00,257,WeatherCatV1.02B3,2013-08-10 01:13:00,
2013-08-09 18:18:00,74.8,57.0,29.68,West,267,4.0,8.0,54,0.00,,,0.00,241,WeatherCatV1.02B3,2013-08-10 01:18:00,
2013-08-09 18:23:00,74.1,56.9,29.68,West,264,4.0,7.0,55,0.00,,,0.00,223,WeatherCatV1.02B3,2013-08-10 01:23:00,
2013-08-09 18:28:00,73.8,56.6,29.68,West,262,4.0,7.0,55,0.00,,,0.00,204,WeatherCatV1.02B3,2013-08-10 01:28:00,
2013-08-09 18:33:00,73.5,56.3,29.68,West,263,2.0,7.0,55,0.00,,,0.00,185,WeatherCatV1.02B3,2013-08-10 01:33:00,
2013-08-09 18:38:00,73.1,56.5,29.68,West,272,4.0,5.0,56,0.00,,,0.00,165,WeatherCatV1.02B3,2013-08-10 01:38:00,
2013-08-09 18:43:00,72.9,56.8,29.68,West,273,3.0,4.0,57,0.00,,,0.00,146,WeatherCatV1.02B3,2013-08-10 01:43:00,
2013-08-09 18:48:00,72.5,56.4,29.68,West,261,4.0,7.0,57,0.00,,,0.00,125,WeatherCatV1.02B3,2013-08-10 01:48:00,
2013-08-09 18:53:00,72.0,56.4,29.68,WSW,248,3.0,6.0,58,0.00,,,0.00,83,WeatherCatV1.02B3,2013-08-10 01:53:00,
2013-08-09 18:58:00,71.4,56.3,29.68,WSW,252,5.0,5.0,59,0.00,,,0.00,28,WeatherCatV1.02B3,2013-08-10 01:58:00,
2013-08-09 19:03:00,71.1,56.0,29.68,West,277,0.0,3.0,59,0.00,,,0.00,25,WeatherCatV1.02B3,2013-08-10 02:03:00,
2013-08-09 19:08:00,70.5,55.9,29.68,West,273,0.0,2.0,60,0.00,,,0.00,23,WeatherCatV1.02B3,2013-08-10 02:08:00,
2013-08-09 19:13:00,70.1,55.6,29.68,WNW,283,1.0,3.0,60,0.00,,,0.00,21,WeatherCatV1.02B3,2013-08-10 02:13:00,
2013-08-09 19:18:00,70.0,55.9,29.68,West,278,0.0,1.0,61,0.00,,,0.00,19,WeatherCatV1.02B3,2013-08-10 02:18:00,
2013-08-09 19:23:00,69.7,56.1,29.68,WNW,286,2.0,2.0,62,0.00,,,0.00,18,WeatherCatV1.02B3,2013-08-10 02:23:00,
2013-08-09 19:28:00,69.4,55.8,29.68,WSW,251,0.0,2.0,62,0.00,,,0.00,14,WeatherCatV1.02B3,2013-08-10 02:28:00,
2013-08-09 19:33:00,69.0,55.9,29.68,WSW,251,0.0,0.0,63,0.00,,,0.00,12,WeatherCatV1.02B3,2013-08-10 02:33:00,
2013-08-09 19:38:00,68.7,56.0,29.68,SW,232,0.0,1.0,64,0.00,,,0.00,11,WeatherCatV1.02B3,2013-08-10 02:38:00,
2013-08-09 19:43:00,68.3,56.1,29.68,WSW,251,0.0,3.0,65,0.00,,,0.00,7,WeatherCatV1.02B3,2013-08-10 02:43:00,
2013-08-09 19:48:00,67.7,56.3,29.68,WSW,250,0.0,1.0,67,0.00,,,0.00,5,WeatherCatV1.02B3,2013-08-10 02:48:00,
2013-08-09 19:53:00,67.1,56.6,29.68,WSW,250,0.0,1.0,69,0.00,,,0.00,0,WeatherCatV1.02B3,2013-08-10 02:53:00,
2013-08-09 19:58:00,66.6,56.5,29.68,SW,229,0.0,1.0,70,0.00,,,0.00,0,WeatherCatV1.02B3,2013-08-10 02:58:00,
2013-08-09 20:03:00,66.1,56.4,29.68,WSW,242,1.0,1.0,71,0.00,,,0.00,0,WeatherCatV1.02B3,2013-08-10 03:03:00,
2013-08-09 20:08:00,65.4,56.5,29.68,West,267,0.0,2.0,73,0.00,,,0.00,0,WeatherCatV1.02B3,2013-08-10 03:08:00,
2013-08-09 20:13:00,65.0,56.5,29.68,West,267,0.0,1.0,74,0.00,,,0.00,0,WeatherCatV1.02B3,2013-08-10 03:13:00,
2013-08-09 20:18:00,64.5,56.0,29.68,West,267,0.0,0.0,74,0.00,,,0.00,0,WeatherCatV1.02B3,2013-08-10 03:18:00,
2013-08-09 20:23:00,64.0,55.5,29.68,West,267,0.0,0.0,74,0.00,,,0.00,0,WeatherCatV1.02B3,2013-08-10 03:23:00,
2013-08-09 20:28:00,63.7,55.6,29.68,West,267,0.0,0.0,75,0.00,,,0.00,0,WeatherCatV1.02B3,2013-08-10 03:28:00,
2013-08-09 20:33:00,63.4,55.7,29.68,West,267,0.0,0.0,76,0.00,,,0.00,0,WeatherCatV1.02B3,2013-08-10 03:33:00,
2013-08-09 20:38:00,62.7,55.0,29.68,West,267,0.0,0.0,76,0.00,,,0.00,0,WeatherCatV1.02B3,2013-08-10 03:38:00,
2013-08-09 20:43:00,62.2,55.3,29.68,West,267,0.0,0.0,78,0.00,,,0.00,0,WeatherCatV1.02B3,2013-08-10 03:43:00,
2013-08-09 20:48:00,61.8,54.9,29.68,West,267,0.0,0.0,78,0.00,,,0.00,0,WeatherCatV1.02B3,2013-08-10 03:48:00,
2013-08-09 20:53:00,61.2,54.6,29.68,West,267,0.0,0.0,79,0.00,,,0.00,0,WeatherCatV1.02B3,2013-08-10 03:53:00,
2013-08-09 20:58:00,60.7,54.1,29.68,West,267,0.0,0.0,79,0.00,,,0.00,0,WeatherCatV1.02B3,2013-08-10 03:58:00,
2013-08-09 21:01:00,60.5,54.3,29.68,West,267,0.0,0.0,80,0.00,,,0.00,0,WeatherCatV1.02B3,2013-08-10 04:01:00,
2013-08-09 21:06:00,60.5,54.3,29.68,West,267,0.0,0.0,80,0.00,,,0.00,0,WeatherCatV1.02B3,2013-08-10 04:06:00,
2013-08-09 21:11:00,60.0,54.1,29.68,West,267,0.0,0.0,81,0.00,,,0.00,0,WeatherCatV1.02B3,2013-08-10 04:11:00,
2013-08-09 21:16:00,59.8,54.0,29.68,West,267,0.0,0.0,81,0.00,,,0.00,0,WeatherCatV1.02B3,2013-08-10 04:16:00,
2013-08-09 21:21:00,59.9,54.7,29.68,West,267,0.0,0.0,83,0.00,,,0.00,0,WeatherCatV1.02B3,2013-08-10 04:21:00,
2013-08-09 21:26:00,59.6,53.8,29.68,West,267,0.0,0.0,81,0.00,,,0.00,0,WeatherCatV1.02B3,2013-08-10 04:26:00,
2013-08-09 21:31:00,59.3,54.1,29.68,West,267,0.0,0.0,83,0.00,,,0.00,0,WeatherCatV1.02B3,2013-08-10 04:31:00,
2013-08-09 21:36:00,59.5,54.3,29.68,West,267,0.0,0.0,83,0.00,,,0.00,0,WeatherCatV1.02B3,2013-08-10 04:36:00,
2013-08-09 21:41:00,59.5,54.3,29.68,West,267,0.0,0.0,83,0.00,,,0.00,0,WeatherCatV1.02B3,2013-08-10 04:41:00,
2013-08-09 21:46:00,58.9,53.1,29.68,West,267,0.0,0.0,81,0.00,,,0.00,0,WeatherCatV1.02B3,2013-08-10 04:46:00,
2013-08-09 21:51:00,58.5,53.7,29.68,West,267,0.0,0.0,84,0.00,,,0.00,0,WeatherCatV1.02B3,2013-08-10 04:51:00,
2013-08-09 21:56:00,58.5,53.4,29.68,West,267,0.0,0.0,83,0.00,,,0.00,0,WeatherCatV1.02B3,2013-08-10 04:56:00,
2013-08-09 22:01:00,58.4,53.9,29.68,West,267,0.0,0.0,85,0.00,,,0.00,0,WeatherCatV1.02B3,2013-08-10 05:01:00,
2013-08-09 22:06:00,58.3,53.8,29.68,West,267,0.0,0.0,85,0.00,,,0.00,0,WeatherCatV1.02B3,2013-08-10 05:06:00,
2013-08-09 22:11:00,58.4,53.9,29.68,West,267,0.0,0.0,85,0.00,,,0.00,0,WeatherCatV1.02B3,2013-08-10 05:11:00,
2013-08-09 22:16:00,57.9,53.1,29.68,West,267,0.0,0.0,84,0.00,,,0.00,0,WeatherCatV1.02B3,2013-08-10 05:16:00,
2013-08-09 22:21:00,57.8,53.3,29.68,West,267,0.0,0.0,85,0.00,,,0.00,0,WeatherCatV1.02B3,2013-08-10 05:21:00,
2013-08-09 22:26:00,57.8,53.3,29.68,West,267,0.0,0.0,85,0.00,,,0.00,0,WeatherCatV1.02B3,2013-08-10 05:26:00,
2013-08-09 22:31:00,57.9,53.7,29.68,West,267,0.0,0.0,86,0.00,,,0.00,0,WeatherCatV1.02B3,2013-08-10 05:31:00,
2013-08-09 22:36:00,57.6,53.4,29.68,West,267,0.0,0.0,86,0.00,,,0.00,0,WeatherCatV1.02B3,2013-08-10 05:36:00,
2013-08-09 22:41:00,57.2,53.0,29.68,West,267,0.0,0.0,86,0.00,,,0.00,0,WeatherCatV1.02B3,2013-08-10 05:41:00,
2013-08-09 22:46:00,57.1,52.9,29.68,West,267,0.0,0.0,86,0.00,,,0.00,0,WeatherCatV1.02B3,2013-08-10 05:46:00,
2013-08-09 22:51:00,57.0,52.9,29.68,West,267,0.0,0.0,86,0.00,,,0.00,0,WeatherCatV1.02B3,2013-08-10 05:51:00,
2013-08-09 22:56:00,57.0,53.2,29.68,West,267,0.0,0.0,87,0.00,,,0.00,0,WeatherCatV1.02B3,2013-08-10 05:56:00,
2013-08-09 23:01:00,56.8,53.0,29.68,West,267,0.0,0.0,87,0.00,,,0.00,0,WeatherCatV1.02B3,2013-08-10 06:01:00,
2013-08-09 23:06:00,56.7,52.9,29.68,West,267,0.0,0.0,87,0.00,,,0.00,0,WeatherCatV1.02B3,2013-08-10 06:06:00,
2013-08-09 23:11:00,56.2,52.1,29.68,West,267,0.0,0.0,86,0.00,,,0.00,0,WeatherCatV1.02B3,2013-08-10 06:11:00,
2013-08-09 23:16:00,56.2,52.1,29.68,West,267,0.0,0.0,86,0.00,,,0.00,0,WeatherCatV1.02B3,2013-08-10 06:16:00,
2013-08-09 23:21:00,56.2,52.1,29.68,West,267,0.0,0.0,86,0.00,,,0.00,0,WeatherCatV1.02B3,2013-08-10 06:21:00,
2013-08-09 23:26:00,56.3,51.8,29.68,West,267,0.0,0.0,85,0.00,,,0.00,0,WeatherCatV1.02B3,2013-08-10 06:26:00,
2013-08-09 23:31:00,56.0,51.9,29.68,West,267,0.0,0.0,86,0.00,,,0.00,0,WeatherCatV1.02B3,2013-08-10 06:31:00,
2013-08-09 23:36:00,55.8,51.7,29.68,West,267,0.0,0.0,86,0.00,,,0.00,0,WeatherCatV1.02B3,2013-08-10 06:36:00,
2013-08-09 23:41:00,55.7,51.6,29.68,West,267,0.0,0.0,86,0.00,,,0.00,0,WeatherCatV1.02B3,2013-08-10 06:41:00,
2013-08-09 23:46:00,56.1,52.3,29.68,West,267,0.0,0.0,87,0.00,,,0.00,0,WeatherCatV1.02B3,2013-08-10 06:46:00,
2013-08-09 23:51:00,55.7,51.6,29.68,West,267,0.0,0.0,86,0.00,,,0.00,0,WeatherCatV1.02B3,2013-08-10 06:51:00,
2013-08-09 23:56:00,55.8,52.0,29.68,West,267,0.0,0.0,87,0.00,,,0.00,0,WeatherCatV1.02B3,2013-08-10 06:56:00,